ニート彗星

169P/NEAT (2018)

English version
Home page
Updated on May 4, 2021

---------------------------------------------------------------------

・ プロフィール

・ 軌道要素

Epoch 2018 May 2.0 TT = JDT 2458240.5                                           
T 2018 Apr. 29.60184 TT                                 Rudenko                 
q   0.6036373            (2000.0)            P               Q                  
n   0.23477227     Peri.  218.08852     +0.82651021     -0.56276298             
a   2.6023848      Node   176.08649     +0.55249543     +0.80642352             
e   0.7680446      Incl.   11.29555     +0.10784097     +0.18160103             
P   4.20                                                                        
From 1186 observations 1989 Mar. 7-2020 May 13, mean residual 0".5.             

・ 星図

・ 光度変化

        H = 15.3  G = 0.15                [   ,-50]  (              〜2018年 3月10日)
        m1 = 15.8 + 5 logΔ + 20.0 log r  [-50, 50]  (2018年 3月10日〜2018年 6月18日)
        H = 15.3  G = 0.15                [ 50,   ]  (2018年 6月18日〜              )

---------------------------------------------------------------------

軌道要素はM.P.E.C. 2020-K117に掲載されたものです。
星図はステラナビゲータ Ver.10 (アストロアーツ) で作成したものです。
光度グラフはComet for Windowsで作成したものです。

---------------------------------------------------------------------

Copyright(C) Seiichi Yoshida (comet@aerith.net). All rights reserved.